Вернуться в каталог

STARLINK-35188

АктивенСвязьSSO
NORAD 65522·PAYLOAD·🇺🇸 United States

Запущен Sep 6, 2025 с Cape Canaveral Space Force Station

Loading…

Ближайшие Пролёты (ближайшие 24 часа)

TLE

СвежийSource: CelesTrak SupGP

Эпоха: Sep 14, 2026, 22:45 UTC

1 65522C 25200C   26257.94840278  .00017125  00000+0  53177-3 0  2571
2 65522  97.2842 324.4304 0001058  83.4926 190.4206 15.33420227    12

Отслеживайте STARLINK-35188 в реальном времени с AllMySat

Download on the App Store